Year,Month,Day,Hour,Minute,Value (Times are PST for temperature in C)
2015,05,30,00,00,13.90
2015,05,30,00,01,13.90
2015,05,30,00,02,13.90
2015,05,30,00,03,13.90
2015,05,30,00,04,13.90
2015,05,30,00,05,13.80
2015,05,30,00,06,13.80
2015,05,30,00,07,13.80
2015,05,30,00,08,13.70
2015,05,30,00,09,13.70
2015,05,30,00,10,13.70
2015,05,30,00,11,13.70
2015,05,30,00,12,13.70
2015,05,30,00,13,13.70
2015,05,30,00,14,13.70
2015,05,30,00,15,13.60
2015,05,30,00,16,13.60
2015,05,30,00,17,13.60
2015,05,30,00,18,13.60
2015,05,30,00,19,13.60
2015,05,30,00,20,13.60
2015,05,30,00,21,13.50
2015,05,30,00,22,13.50
2015,05,30,00,23,13.50
2015,05,30,00,24,13.50
2015,05,30,00,25,13.50
2015,05,30,00,26,13.50
2015,05,30,00,27,13.50
2015,05,30,00,28,13.50
2015,05,30,00,29,13.50
2015,05,30,00,30,13.40
2015,05,30,00,31,13.40
2015,05,30,00,32,13.40
2015,05,30,00,33,13.30
2015,05,30,00,34,13.30
2015,05,30,00,35,13.30
2015,05,30,00,36,13.30
2015,05,30,00,37,13.30
2015,05,30,00,38,13.20
2015,05,30,00,39,13.20
2015,05,30,00,40,13.10
2015,05,30,00,41,13.10
2015,05,30,00,42,13.10
2015,05,30,00,43,13.00
2015,05,30,00,44,13.00
2015,05,30,00,45,13.00
2015,05,30,00,46,12.90
2015,05,30,00,47,12.90
2015,05,30,00,48,12.90
2015,05,30,00,49,12.90
2015,05,30,00,50,12.80
2015,05,30,00,51,12.80
2015,05,30,00,52,12.80
2015,05,30,00,53,12.80
2015,05,30,00,54,12.80
2015,05,30,00,55,12.70
2015,05,30,00,56,12.70
2015,05,30,00,57,12.70
2015,05,30,00,58,12.70
2015,05,30,00,59,12.70
2015,05,30,01,00,12.60
2015,05,30,01,01,12.60
2015,05,30,01,02,12.60
2015,05,30,01,03,12.60
2015,05,30,01,04,12.60
2015,05,30,01,05,12.60
2015,05,30,01,06,12.50
2015,05,30,01,07,12.50
2015,05,30,01,08,12.50
2015,05,30,01,09,12.50
2015,05,30,01,10,12.50
2015,05,30,01,11,12.50
2015,05,30,01,12,12.40
2015,05,30,01,13,12.40
2015,05,30,01,14,12.40
2015,05,30,01,15,12.40
2015,05,30,01,16,12.30
2015,05,30,01,17,12.30
2015,05,30,01,18,12.30
2015,05,30,01,19,12.30
2015,05,30,01,20,12.30
2015,05,30,01,21,12.20
2015,05,30,01,22,12.20
2015,05,30,01,23,12.20
2015,05,30,01,24,12.10
2015,05,30,01,25,12.10
2015,05,30,01,26,12.10
2015,05,30,01,27,12.10
2015,05,30,01,28,12.10
2015,05,30,01,29,12.00
2015,05,30,01,30,12.00
2015,05,30,01,31,12.00
2015,05,30,01,32,12.00
2015,05,30,01,33,12.00
2015,05,30,01,34,12.00
2015,05,30,01,35,12.00
2015,05,30,01,36,12.00
2015,05,30,01,37,12.00
2015,05,30,01,38,11.90
2015,05,30,01,39,11.90
2015,05,30,01,40,11.90
2015,05,30,01,41,11.90
2015,05,30,01,42,11.90
2015,05,30,01,43,11.90
2015,05,30,01,44,11.90
2015,05,30,01,45,11.80
2015,05,30,01,46,11.80
2015,05,30,01,47,11.80
2015,05,30,01,48,11.80
2015,05,30,01,49,11.80
2015,05,30,01,50,11.80
2015,05,30,01,51,11.80
2015,05,30,01,52,11.80
2015,05,30,01,53,11.80
2015,05,30,01,54,11.80
2015,05,30,01,55,11.80
2015,05,30,01,56,11.80
2015,05,30,01,57,11.80
2015,05,30,01,58,11.80
2015,05,30,01,59,11.80
2015,05,30,02,00,11.80
2015,05,30,02,01,11.80
2015,05,30,02,02,11.80
2015,05,30,02,03,11.80
2015,05,30,02,04,11.80
2015,05,30,02,05,11.70
2015,05,30,02,06,11.70
2015,05,30,02,07,11.70
2015,05,30,02,08,11.70
2015,05,30,02,09,11.70
2015,05,30,02,10,11.70
2015,05,30,02,11,11.70
2015,05,30,02,12,11.70
2015,05,30,02,13,11.70
2015,05,30,02,14,11.70
2015,05,30,02,15,11.70
2015,05,30,02,16,11.70
2015,05,30,02,17,11.70
2015,05,30,02,18,11.70
2015,05,30,02,19,11.70
2015,05,30,02,20,11.70
2015,05,30,02,21,11.70
2015,05,30,02,22,11.70
2015,05,30,02,23,11.70
2015,05,30,02,24,11.70
2015,05,30,02,25,11.70
2015,05,30,02,26,11.60
2015,05,30,02,27,11.60
2015,05,30,02,28,11.60
2015,05,30,02,29,11.60
2015,05,30,02,30,11.60
2015,05,30,02,31,11.60
2015,05,30,02,32,11.60
2015,05,30,02,33,11.60
2015,05,30,02,34,11.60
2015,05,30,02,35,11.60
2015,05,30,02,36,11.60
2015,05,30,02,37,11.60
2015,05,30,02,38,11.60
2015,05,30,02,39,11.60
2015,05,30,02,40,11.60
2015,05,30,02,41,11.60
2015,05,30,02,42,11.60
2015,05,30,02,43,11.50
2015,05,30,02,44,11.40
2015,05,30,02,45,11.40
2015,05,30,02,46,11.40
2015,05,30,02,47,11.40
2015,05,30,02,48,11.40
2015,05,30,02,49,11.30
2015,05,30,02,50,11.30
2015,05,30,02,51,11.20
2015,05,30,02,52,11.20
2015,05,30,02,53,11.20
2015,05,30,02,54,11.10
2015,05,30,02,55,11.10
2015,05,30,02,56,11.10
2015,05,30,02,57,11.00
2015,05,30,02,58,10.90
2015,05,30,02,59,10.90
2015,05,30,03,00,10.90
2015,05,30,03,01,10.90
2015,05,30,03,02,10.90
2015,05,30,03,03,10.90
2015,05,30,03,04,10.90
2015,05,30,03,05,10.90
2015,05,30,03,06,10.90
2015,05,30,03,07,10.90
2015,05,30,03,08,10.80
2015,05,30,03,09,10.80
2015,05,30,03,10,10.80
2015,05,30,03,11,10.80
2015,05,30,03,12,10.80
2015,05,30,03,13,10.80
2015,05,30,03,14,10.70
2015,05,30,03,15,10.70
2015,05,30,03,16,10.70
2015,05,30,03,17,10.70
2015,05,30,03,18,10.70
2015,05,30,03,19,10.70
2015,05,30,03,20,10.60
2015,05,30,03,21,10.60
2015,05,30,03,22,10.60
2015,05,30,03,23,10.60
2015,05,30,03,24,10.60
2015,05,30,03,25,10.60
2015,05,30,03,26,10.60
2015,05,30,03,27,10.60
2015,05,30,03,28,10.60
2015,05,30,03,29,10.60
2015,05,30,03,30,10.60
2015,05,30,03,31,10.60
2015,05,30,03,32,10.60
2015,05,30,03,33,10.60
2015,05,30,03,34,10.60
2015,05,30,03,35,10.60
2015,05,30,03,36,10.50
2015,05,30,03,37,10.40
2015,05,30,03,38,10.40
2015,05,30,03,39,10.40
2015,05,30,03,40,10.40
2015,05,30,03,41,10.40
2015,05,30,03,42,10.40
2015,05,30,03,43,10.40
2015,05,30,03,44,10.40
2015,05,30,03,45,10.40
2015,05,30,03,46,10.40
2015,05,30,03,47,10.40
2015,05,30,03,48,10.40
2015,05,30,03,49,10.40
2015,05,30,03,50,10.40
2015,05,30,03,51,10.40
2015,05,30,03,52,10.40
2015,05,30,03,53,10.40
2015,05,30,03,54,10.40
2015,05,30,03,55,10.40
2015,05,30,03,56,10.40
2015,05,30,03,57,10.40
2015,05,30,03,58,10.40
2015,05,30,03,59,10.40
2015,05,30,04,00,10.40
2015,05,30,04,01,10.40
2015,05,30,04,02,10.40
2015,05,30,04,03,10.40
2015,05,30,04,04,10.40
2015,05,30,04,05,10.40
2015,05,30,04,06,10.40
2015,05,30,04,07,10.40
2015,05,30,04,08,10.40
2015,05,30,04,09,10.40
2015,05,30,04,10,10.40
2015,05,30,04,11,10.40
2015,05,30,04,12,10.40
2015,05,30,04,13,10.40
2015,05,30,04,14,10.40
2015,05,30,04,15,10.40
2015,05,30,04,16,10.40
2015,05,30,04,17,10.40
2015,05,30,04,18,10.40
2015,05,30,04,19,10.40
2015,05,30,04,20,10.40
2015,05,30,04,21,10.40
2015,05,30,04,22,10.40
2015,05,30,04,23,10.40
2015,05,30,04,24,10.40
2015,05,30,04,25,10.40
2015,05,30,04,26,10.40
2015,05,30,04,27,10.40
2015,05,30,04,28,10.40
2015,05,30,04,29,10.40
2015,05,30,04,30,10.40
2015,05,30,04,31,10.40
2015,05,30,04,32,10.40
2015,05,30,04,33,10.40
2015,05,30,04,34,10.40
2015,05,30,04,35,10.40
2015,05,30,04,36,10.40
2015,05,30,04,37,10.40
2015,05,30,04,38,10.30
2015,05,30,04,39,10.30
2015,05,30,04,40,10.30
2015,05,30,04,41,10.30
2015,05,30,04,42,10.30
2015,05,30,04,43,10.30
2015,05,30,04,44,10.30
2015,05,30,04,45,10.30
2015,05,30,04,46,10.30
2015,05,30,04,47,10.30
2015,05,30,04,48,10.30
2015,05,30,04,49,10.30
2015,05,30,04,50,10.30
2015,05,30,04,51,10.30
2015,05,30,04,52,10.30
2015,05,30,04,53,10.30
2015,05,30,04,54,10.30
2015,05,30,04,55,10.30
2015,05,30,04,56,10.30
2015,05,30,04,57,10.30
2015,05,30,04,58,10.30
2015,05,30,04,59,10.30
2015,05,30,05,00,10.30
2015,05,30,05,01,10.30
2015,05,30,05,02,10.30
2015,05,30,05,03,10.30
2015,05,30,05,04,10.30
2015,05,30,05,05,10.20
2015,05,30,05,06,10.20
2015,05,30,05,07,10.30
2015,05,30,05,08,10.30
2015,05,30,05,09,10.30
2015,05,30,05,10,10.30
2015,05,30,05,11,10.30
2015,05,30,05,12,10.30
2015,05,30,05,13,10.30
2015,05,30,05,14,10.30
2015,05,30,05,15,10.30
2015,05,30,05,16,10.30
2015,05,30,05,17,10.30
2015,05,30,05,18,10.30
2015,05,30,05,19,10.30
2015,05,30,05,20,10.30
2015,05,30,05,21,10.30
2015,05,30,05,22,10.30
2015,05,30,05,23,10.30
2015,05,30,05,24,10.30
2015,05,30,05,25,10.30
2015,05,30,05,26,10.30
2015,05,30,05,27,10.30
2015,05,30,05,28,10.30
2015,05,30,05,29,10.30
2015,05,30,05,30,10.30
2015,05,30,05,31,10.30
2015,05,30,05,32,10.30
2015,05,30,05,33,10.30
2015,05,30,05,34,10.30
2015,05,30,05,35,10.30
2015,05,30,05,36,10.30
2015,05,30,05,37,10.30
2015,05,30,05,38,10.30
2015,05,30,05,39,10.30
2015,05,30,05,40,10.30
2015,05,30,05,41,10.30
2015,05,30,05,42,10.30
2015,05,30,05,43,10.30
2015,05,30,05,44,10.30
2015,05,30,05,45,10.30
2015,05,30,05,46,10.30
2015,05,30,05,47,10.30
2015,05,30,05,48,10.30
2015,05,30,05,49,10.30
2015,05,30,05,50,10.30
2015,05,30,05,51,10.30
2015,05,30,05,52,10.30
2015,05,30,05,53,10.30
2015,05,30,05,54,10.30
2015,05,30,05,55,10.30
2015,05,30,05,56,10.30
2015,05,30,05,57,10.30
2015,05,30,05,58,10.30
2015,05,30,05,59,10.30
2015,05,30,06,00,10.30
2015,05,30,06,01,10.30
2015,05,30,06,02,10.40
2015,05,30,06,03,10.40
2015,05,30,06,04,10.40
2015,05,30,06,05,10.40
2015,05,30,06,06,10.40
2015,05,30,06,07,10.40
2015,05,30,06,08,10.40
2015,05,30,06,09,10.40
2015,05,30,06,10,10.40
2015,05,30,06,11,10.40
2015,05,30,06,12,10.40
2015,05,30,06,13,10.40
2015,05,30,06,14,10.40
2015,05,30,06,15,10.50
2015,05,30,06,16,10.60
2015,05,30,06,17,10.60
2015,05,30,06,18,10.60
2015,05,30,06,19,10.60
2015,05,30,06,20,10.60
2015,05,30,06,21,10.60
2015,05,30,06,22,10.60
2015,05,30,06,23,10.60
2015,05,30,06,24,10.60
2015,05,30,06,25,10.70
2015,05,30,06,26,10.70
2015,05,30,06,27,10.70
2015,05,30,06,28,10.70
2015,05,30,06,29,10.70
2015,05,30,06,30,10.80
2015,05,30,06,31,10.80
2015,05,30,06,32,10.80
2015,05,30,06,33,10.90
2015,05,30,06,34,10.90
2015,05,30,06,35,10.90
2015,05,30,06,36,10.90
2015,05,30,06,37,10.90
2015,05,30,06,38,10.90
2015,05,30,06,39,10.90
2015,05,30,06,40,11.10
2015,05,30,06,41,11.10
2015,05,30,06,42,11.10
2015,05,30,06,43,11.10
2015,05,30,06,44,11.20
2015,05,30,06,45,11.20
2015,05,30,06,46,11.20
2015,05,30,06,47,11.20
2015,05,30,06,48,11.20
2015,05,30,06,49,11.20
2015,05,30,06,50,11.20
2015,05,30,06,51,11.20
2015,05,30,06,52,11.20
2015,05,30,06,53,11.30
2015,05,30,06,54,11.30
2015,05,30,06,55,11.30
2015,05,30,06,56,11.30
2015,05,30,06,57,11.30
2015,05,30,06,58,11.30
2015,05,30,06,59,11.40
2015,05,30,07,00,11.40
2015,05,30,07,01,11.40
2015,05,30,07,02,11.40
2015,05,30,07,03,11.40
2015,05,30,07,04,11.40
2015,05,30,07,05,11.40
2015,05,30,07,06,11.50
2015,05,30,07,07,11.60
2015,05,30,07,08,11.60
2015,05,30,07,09,11.60
2015,05,30,07,10,11.60
2015,05,30,07,11,11.60
2015,05,30,07,12,11.60
2015,05,30,07,13,11.60
2015,05,30,07,14,11.70
2015,05,30,07,15,11.70
2015,05,30,07,16,11.70
2015,05,30,07,17,11.80
2015,05,30,07,18,11.80
2015,05,30,07,19,11.80
2015,05,30,07,20,11.70
2015,05,30,07,21,11.70
2015,05,30,07,22,11.70
2015,05,30,07,23,11.70
2015,05,30,07,24,11.70
2015,05,30,07,25,11.70
2015,05,30,07,26,11.80
2015,05,30,07,27,11.80
2015,05,30,07,28,11.80
2015,05,30,07,29,11.80
2015,05,30,07,30,11.90
2015,05,30,07,31,11.90
2015,05,30,07,32,12.00
2015,05,30,07,33,12.00
2015,05,30,07,34,12.00
2015,05,30,07,35,12.10
2015,05,30,07,36,12.10
2015,05,30,07,37,12.00
2015,05,30,07,38,12.10
2015,05,30,07,39,12.10
2015,05,30,07,40,12.10
2015,05,30,07,41,12.10
2015,05,30,07,42,12.10
2015,05,30,07,43,12.10
2015,05,30,07,44,12.00
2015,05,30,07,45,12.00
2015,05,30,07,46,12.00
2015,05,30,07,47,12.00
2015,05,30,07,48,12.00
2015,05,30,07,49,12.10
2015,05,30,07,50,12.10
2015,05,30,07,51,12.10
2015,05,30,07,52,12.20
2015,05,30,07,53,12.20
2015,05,30,07,54,12.20
2015,05,30,07,55,12.20
2015,05,30,07,56,12.20
2015,05,30,07,57,12.20
2015,05,30,07,58,12.30
2015,05,30,07,59,12.30
2015,05,30,08,00,12.30
2015,05,30,08,01,12.30
2015,05,30,08,02,12.30
2015,05,30,08,03,12.30
2015,05,30,08,04,12.30
2015,05,30,08,05,12.40
2015,05,30,08,06,12.40
2015,05,30,08,07,12.40
2015,05,30,08,08,12.40
2015,05,30,08,09,12.40
2015,05,30,08,10,12.50
2015,05,30,08,11,12.50
2015,05,30,08,12,12.50
2015,05,30,08,13,12.50
2015,05,30,08,14,12.50
2015,05,30,08,15,12.60
2015,05,30,08,16,12.60
2015,05,30,08,17,12.60
2015,05,30,08,18,12.60
2015,05,30,08,19,12.70
2015,05,30,08,20,12.70
2015,05,30,08,21,12.80
2015,05,30,08,22,12.70
2015,05,30,08,23,12.70
2015,05,30,08,24,12.70
2015,05,30,08,25,12.80
2015,05,30,08,26,12.80
2015,05,30,08,27,12.80
2015,05,30,08,28,12.90
2015,05,30,08,29,13.00
2015,05,30,08,30,13.00
2015,05,30,08,31,13.00
2015,05,30,08,32,13.00
2015,05,30,08,33,13.00
2015,05,30,08,34,12.90
2015,05,30,08,35,12.90
2015,05,30,08,36,12.80
2015,05,30,08,37,12.80
2015,05,30,08,38,12.80
2015,05,30,08,39,12.80
2015,05,30,08,40,12.80
2015,05,30,08,41,12.80
2015,05,30,08,42,12.80
2015,05,30,08,43,12.80
2015,05,30,08,44,12.80
2015,05,30,08,45,12.80
2015,05,30,08,46,12.80
2015,05,30,08,47,12.80
2015,05,30,08,48,12.80
2015,05,30,08,49,12.90
2015,05,30,08,50,12.90
2015,05,30,08,51,13.00
2015,05,30,08,52,13.00
2015,05,30,08,53,13.10
2015,05,30,08,54,13.10
2015,05,30,08,55,13.10
2015,05,30,08,56,13.10
2015,05,30,08,57,13.10
2015,05,30,08,58,13.20
2015,05,30,08,59,13.30
2015,05,30,09,00,13.30
2015,05,30,09,01,13.30
2015,05,30,09,02,13.30
2015,05,30,09,03,13.40
2015,05,30,09,04,13.50
2015,05,30,09,05,13.50
2015,05,30,09,06,13.50
2015,05,30,09,07,13.50
2015,05,30,09,08,13.50
2015,05,30,09,09,13.40
2015,05,30,09,10,13.40
2015,05,30,09,11,13.40
2015,05,30,09,12,13.40
2015,05,30,09,13,13.50
2015,05,30,09,14,13.50
2015,05,30,09,15,13.60
2015,05,30,09,16,13.60
2015,05,30,09,17,13.60
2015,05,30,09,18,13.70
2015,05,30,09,19,13.70
2015,05,30,09,20,13.80
2015,05,30,09,21,13.80
2015,05,30,09,22,13.90
2015,05,30,09,23,13.90
2015,05,30,09,24,14.00
2015,05,30,09,25,14.00
2015,05,30,09,26,14.00
2015,05,30,09,27,14.10
2015,05,30,09,28,14.20
2015,05,30,09,29,14.30
2015,05,30,09,30,14.50
2015,05,30,09,31,14.50
2015,05,30,09,32,14.60
2015,05,30,09,33,14.50
2015,05,30,09,34,14.50
2015,05,30,09,35,14.60
2015,05,30,09,36,14.70
2015,05,30,09,37,14.70
2015,05,30,09,38,14.60
2015,05,30,09,39,14.60
2015,05,30,09,40,14.60
2015,05,30,09,41,14.60
2015,05,30,09,42,14.60
2015,05,30,09,43,14.50
2015,05,30,09,44,14.50
2015,05,30,09,45,14.50
2015,05,30,09,46,14.40
2015,05,30,09,47,14.40
2015,05,30,09,48,14.50
2015,05,30,09,49,14.50
2015,05,30,09,50,14.40
2015,05,30,09,51,14.30
2015,05,30,09,52,14.20
2015,05,30,09,53,14.20
2015,05,30,09,54,14.20
2015,05,30,09,55,14.20
2015,05,30,09,56,14.30
2015,05,30,09,57,14.30
2015,05,30,09,58,14.30
2015,05,30,09,59,14.30
2015,05,30,10,00,14.20
2015,05,30,10,01,14.20
2015,05,30,10,02,14.20
2015,05,30,10,03,14.20
2015,05,30,10,04,14.20
2015,05,30,10,05,14.20
2015,05,30,10,06,14.20
2015,05,30,10,07,14.20
2015,05,30,10,08,14.30
2015,05,30,10,09,14.30
2015,05,30,10,10,14.30
2015,05,30,10,11,14.20
2015,05,30,10,12,14.10
2015,05,30,10,13,14.10
2015,05,30,10,14,14.10
2015,05,30,10,15,14.20
2015,05,30,10,16,14.20
2015,05,30,10,17,14.20
2015,05,30,10,18,14.20
2015,05,30,10,19,14.20
2015,05,30,10,20,14.30
2015,05,30,10,21,14.40
2015,05,30,10,22,14.40
2015,05,30,10,23,14.60
2015,05,30,10,24,14.70
2015,05,30,10,25,14.80
2015,05,30,10,26,14.80
2015,05,30,10,27,14.70
2015,05,30,10,28,14.60
2015,05,30,10,29,14.60
2015,05,30,10,30,14.50
2015,05,30,10,31,14.40
2015,05,30,10,32,14.40
2015,05,30,10,33,14.40
2015,05,30,10,34,14.50
2015,05,30,10,35,14.50
2015,05,30,10,36,14.50
2015,05,30,10,37,14.50
2015,05,30,10,38,14.50
2015,05,30,10,39,14.40
2015,05,30,10,40,14.30
2015,05,30,10,41,14.20
2015,05,30,10,42,14.30
2015,05,30,10,43,14.30
2015,05,30,10,44,14.40
2015,05,30,10,45,14.50
2015,05,30,10,46,14.60
2015,05,30,10,47,14.70
2015,05,30,10,48,14.70
2015,05,30,10,49,14.70
2015,05,30,10,50,14.80
2015,05,30,10,51,14.70
2015,05,30,10,52,14.70
2015,05,30,10,53,14.60
2015,05,30,10,54,14.60
2015,05,30,10,55,14.50
2015,05,30,10,56,14.40
2015,05,30,10,57,14.40
2015,05,30,10,58,14.40
2015,05,30,10,59,14.40
2015,05,30,11,00,14.40
2015,05,30,11,01,14.40
2015,05,30,11,02,14.50
2015,05,30,11,03,14.60
2015,05,30,11,04,14.50
2015,05,30,11,05,14.50
2015,05,30,11,06,14.60
2015,05,30,11,07,14.70
2015,05,30,11,08,14.80
2015,05,30,11,09,14.80
2015,05,30,11,10,14.90
2015,05,30,11,11,15.00
2015,05,30,11,12,15.20
2015,05,30,11,13,15.30
2015,05,30,11,14,15.30
2015,05,30,11,15,15.40
2015,05,30,11,16,15.60
2015,05,30,11,17,15.60
2015,05,30,11,18,15.50
2015,05,30,11,19,15.50
2015,05,30,11,20,15.40
2015,05,30,11,21,15.40
2015,05,30,11,22,15.40
2015,05,30,11,23,15.50
2015,05,30,11,24,15.50
2015,05,30,11,25,15.40
2015,05,30,11,26,15.30
2015,05,30,11,27,15.30
2015,05,30,11,28,15.30
2015,05,30,11,29,15.30
2015,05,30,11,30,15.30
2015,05,30,11,31,15.40
2015,05,30,11,32,15.60
2015,05,30,11,33,15.60
2015,05,30,11,34,15.50
2015,05,30,11,35,15.50
2015,05,30,11,36,15.50
2015,05,30,11,37,15.50
2015,05,30,11,38,15.60
2015,05,30,11,39,15.70
2015,05,30,11,40,15.90
2015,05,30,11,41,16.00
2015,05,30,11,42,15.80
2015,05,30,11,43,15.90
2015,05,30,11,44,15.90
2015,05,30,11,45,15.80
2015,05,30,11,46,15.80
2015,05,30,11,47,15.70
2015,05,30,11,48,15.70
2015,05,30,11,49,15.70
2015,05,30,11,50,15.60
2015,05,30,11,51,15.50
2015,05,30,11,52,15.50
2015,05,30,11,53,15.60
2015,05,30,11,54,15.60
2015,05,30,11,55,15.80
2015,05,30,11,56,15.80
2015,05,30,11,57,15.60
2015,05,30,11,58,15.60
2015,05,30,11,59,15.50
2015,05,30,12,00,15.40
2015,05,30,12,01,15.20
2015,05,30,12,02,15.10
2015,05,30,12,03,15.20
2015,05,30,12,04,15.20
2015,05,30,12,05,15.30
2015,05,30,12,06,15.50
2015,05,30,12,07,15.60
2015,05,30,12,08,15.80
2015,05,30,12,09,16.10
2015,05,30,12,10,16.30
2015,05,30,12,11,16.40
2015,05,30,12,12,16.40
2015,05,30,12,13,16.40
2015,05,30,12,14,16.30
2015,05,30,12,15,16.30
2015,05,30,12,16,16.10
2015,05,30,12,17,16.10
2015,05,30,12,18,16.20
2015,05,30,12,19,16.30
2015,05,30,12,20,16.50
2015,05,30,12,21,16.40
2015,05,30,12,22,16.40
2015,05,30,12,23,16.40
2015,05,30,12,24,16.40
2015,05,30,12,25,16.40
2015,05,30,12,26,16.30
2015,05,30,12,27,16.30
2015,05,30,12,28,16.40
2015,05,30,12,29,16.40
2015,05,30,12,30,16.60
2015,05,30,12,31,16.50
2015,05,30,12,32,16.40
2015,05,30,12,33,16.30
2015,05,30,12,34,16.20
2015,05,30,12,35,16.10
2015,05,30,12,36,15.90
2015,05,30,12,37,16.00
2015,05,30,12,38,15.90
2015,05,30,12,39,15.80
2015,05,30,12,40,15.80
2015,05,30,12,41,15.80
2015,05,30,12,42,16.00
2015,05,30,12,43,16.10
2015,05,30,12,44,16.10
2015,05,30,12,45,16.00
2015,05,30,12,46,15.90
2015,05,30,12,47,15.80
2015,05,30,12,48,15.70
2015,05,30,12,49,15.70
2015,05,30,12,50,15.70
2015,05,30,12,51,15.80
2015,05,30,12,52,15.90
2015,05,30,12,53,16.10
2015,05,30,12,54,16.30
2015,05,30,12,55,16.40
2015,05,30,12,56,16.40
2015,05,30,12,57,16.40
2015,05,30,12,58,16.40
2015,05,30,12,59,16.30
2015,05,30,13,00,16.10
2015,05,30,13,01,15.90
2015,05,30,13,02,15.80
2015,05,30,13,03,15.90
2015,05,30,13,04,16.10
2015,05,30,13,05,16.20
2015,05,30,13,06,16.30
2015,05,30,13,07,16.40
2015,05,30,13,08,16.30
2015,05,30,13,09,16.10
2015,05,30,13,10,16.00
2015,05,30,13,11,15.80
2015,05,30,13,12,15.70
2015,05,30,13,13,15.70
2015,05,30,13,14,15.80
2015,05,30,13,15,15.80
2015,05,30,13,16,15.80
2015,05,30,13,17,15.80
2015,05,30,13,18,15.90
2015,05,30,13,19,16.00
2015,05,30,13,20,16.10
2015,05,30,13,21,16.20
2015,05,30,13,22,16.20
2015,05,30,13,23,16.20
2015,05,30,13,24,16.20
2015,05,30,13,25,16.20
2015,05,30,13,26,16.10
2015,05,30,13,27,16.20
2015,05,30,13,28,16.30
2015,05,30,13,29,16.40
2015,05,30,13,30,16.60
2015,05,30,13,31,16.80
2015,05,30,13,32,16.90
2015,05,30,13,33,16.90
2015,05,30,13,34,16.90
2015,05,30,13,35,16.80
2015,05,30,13,36,16.80
2015,05,30,13,37,16.90
2015,05,30,13,38,17.00
2015,05,30,13,39,17.00
2015,05,30,13,40,17.10
2015,05,30,13,41,17.10
2015,05,30,13,42,17.20
2015,05,30,13,43,17.20
2015,05,30,13,44,17.30
2015,05,30,13,45,17.40
2015,05,30,13,46,17.40
2015,05,30,13,47,17.50
2015,05,30,13,48,17.50
2015,05,30,13,49,17.40
2015,05,30,13,50,17.30
2015,05,30,13,51,17.30
2015,05,30,13,52,17.30
2015,05,30,13,53,17.30
2015,05,30,13,54,17.30
2015,05,30,13,55,17.30
2015,05,30,13,56,17.20
2015,05,30,13,57,17.30
2015,05,30,13,58,17.30
2015,05,30,13,59,17.30
2015,05,30,14,00,17.30
2015,05,30,14,01,17.20
2015,05,30,14,02,17.30
2015,05,30,14,03,17.30
2015,05,30,14,04,17.30
2015,05,30,14,05,17.30
2015,05,30,14,06,17.20
2015,05,30,14,07,17.20
2015,05,30,14,08,17.30
2015,05,30,14,09,17.40
2015,05,30,14,10,17.40
2015,05,30,14,11,17.40
2015,05,30,14,12,17.50
2015,05,30,14,13,17.50
2015,05,30,14,14,17.70
2015,05,30,14,15,17.80
2015,05,30,14,16,17.90
2015,05,30,14,17,18.00
2015,05,30,14,18,18.10
2015,05,30,14,19,18.20
2015,05,30,14,20,18.30
2015,05,30,14,21,18.40
2015,05,30,14,22,18.60
2015,05,30,14,23,18.60
2015,05,30,14,24,18.70
2015,05,30,14,25,18.80
2015,05,30,14,26,18.80
2015,05,30,14,27,18.80
2015,05,30,14,28,18.80
2015,05,30,14,29,18.80
2015,05,30,14,30,18.80
2015,05,30,14,31,18.80
2015,05,30,14,32,18.80
2015,05,30,14,33,18.80
2015,05,30,14,34,18.80
2015,05,30,14,35,18.80
2015,05,30,14,36,18.70
2015,05,30,14,37,18.60
2015,05,30,14,38,18.70
2015,05,30,14,39,18.70
2015,05,30,14,40,18.80
2015,05,30,14,41,18.90
2015,05,30,14,42,18.90
2015,05,30,14,43,18.90
2015,05,30,14,44,19.10
2015,05,30,14,45,19.10
2015,05,30,14,46,19.10
2015,05,30,14,47,19.10
2015,05,30,14,48,19.10
2015,05,30,14,49,19.10
2015,05,30,14,50,19.10
2015,05,30,14,51,19.10
2015,05,30,14,52,19.10
2015,05,30,14,53,19.10
2015,05,30,14,54,19.10
2015,05,30,14,55,19.20
2015,05,30,14,56,19.20
2015,05,30,14,57,19.30
2015,05,30,14,58,19.30
2015,05,30,14,59,19.40
2015,05,30,15,00,19.40
2015,05,30,15,01,19.40
2015,05,30,15,02,19.40
2015,05,30,15,03,19.40
2015,05,30,15,04,19.50
2015,05,30,15,05,19.40
2015,05,30,15,06,19.30
2015,05,30,15,07,19.40
2015,05,30,15,08,19.40
2015,05,30,15,09,19.40
2015,05,30,15,10,19.30
2015,05,30,15,11,19.30
2015,05,30,15,12,19.30
2015,05,30,15,13,19.20
2015,05,30,15,14,19.20
2015,05,30,15,15,19.30
2015,05,30,15,16,19.40
2015,05,30,15,17,19.50
2015,05,30,15,18,19.70
2015,05,30,15,19,19.80
2015,05,30,15,20,19.80
2015,05,30,15,21,19.90
2015,05,30,15,22,19.90
2015,05,30,15,23,20.00
2015,05,30,15,24,20.10
2015,05,30,15,25,20.20
2015,05,30,15,26,20.20
2015,05,30,15,27,20.30
2015,05,30,15,28,20.30
2015,05,30,15,29,20.20
2015,05,30,15,30,20.20
2015,05,30,15,31,20.20
2015,05,30,15,32,20.20
2015,05,30,15,33,20.10
2015,05,30,15,34,20.10
2015,05,30,15,35,20.20
2015,05,30,15,36,20.20
2015,05,30,15,37,20.20
2015,05,30,15,38,20.20
2015,05,30,15,39,20.10
2015,05,30,15,40,19.90
2015,05,30,15,41,19.90
2015,05,30,15,42,19.80
2015,05,30,15,43,19.70
2015,05,30,15,44,19.70
2015,05,30,15,45,19.80
2015,05,30,15,46,19.80
2015,05,30,15,47,19.90
2015,05,30,15,48,19.90
2015,05,30,15,49,19.90
2015,05,30,15,50,20.10
2015,05,30,15,51,20.20
2015,05,30,15,52,20.20
2015,05,30,15,53,20.20
2015,05,30,15,54,20.20
2015,05,30,15,55,20.30
2015,05,30,15,56,20.40
2015,05,30,15,57,20.50
2015,05,30,15,58,20.50
2015,05,30,15,59,20.60
2015,05,30,16,00,20.60
2015,05,30,16,01,20.70
2015,05,30,16,02,20.70
2015,05,30,16,03,20.90
2015,05,30,16,04,21.00
2015,05,30,16,05,21.10
2015,05,30,16,06,21.20
2015,05,30,16,07,21.30
2015,05,30,16,08,21.20
2015,05,30,16,09,21.10
2015,05,30,16,10,20.90
2015,05,30,16,11,20.90
2015,05,30,16,12,21.00
2015,05,30,16,13,21.00
2015,05,30,16,14,21.10
2015,05,30,16,15,21.10
2015,05,30,16,16,21.00
2015,05,30,16,17,21.10
2015,05,30,16,18,21.00
2015,05,30,16,19,21.00
2015,05,30,16,20,20.90
2015,05,30,16,21,20.80
2015,05,30,16,22,20.80
2015,05,30,16,23,20.70
2015,05,30,16,24,20.70
2015,05,30,16,25,20.70
2015,05,30,16,26,20.70
2015,05,30,16,27,20.70
2015,05,30,16,28,20.70
2015,05,30,16,29,20.70
2015,05,30,16,30,20.80
2015,05,30,16,31,20.80
2015,05,30,16,32,20.80
2015,05,30,16,33,20.70
2015,05,30,16,34,20.60
2015,05,30,16,35,20.60
2015,05,30,16,36,20.60
2015,05,30,16,37,20.60
2015,05,30,16,38,20.60
2015,05,30,16,39,20.60
2015,05,30,16,40,20.50
2015,05,30,16,41,20.40
2015,05,30,16,42,20.30
2015,05,30,16,43,20.20
2015,05,30,16,44,20.10
2015,05,30,16,45,20.10
2015,05,30,16,46,20.10
2015,05,30,16,47,20.10
2015,05,30,16,48,20.10
2015,05,30,16,49,20.00
2015,05,30,16,50,19.90
2015,05,30,16,51,19.90
2015,05,30,16,52,19.90
2015,05,30,16,53,19.90
2015,05,30,16,54,19.90
2015,05,30,16,55,20.00
2015,05,30,16,56,20.00
2015,05,30,16,57,19.90
2015,05,30,16,58,19.80
2015,05,30,16,59,19.80
2015,05,30,17,00,19.70
2015,05,30,17,01,19.70
2015,05,30,17,02,19.70
2015,05,30,17,03,19.70
2015,05,30,17,04,19.70
2015,05,30,17,05,19.60
2015,05,30,17,06,19.50
2015,05,30,17,07,19.50
2015,05,30,17,08,19.50
2015,05,30,17,09,19.50
2015,05,30,17,10,19.60
2015,05,30,17,11,19.60
2015,05,30,17,12,19.70
2015,05,30,17,13,19.70
2015,05,30,17,14,19.70
2015,05,30,17,15,19.70
2015,05,30,17,16,19.70
2015,05,30,17,17,19.80
2015,05,30,17,18,19.80
2015,05,30,17,19,19.70